Regional Weather Roundup
Issued by NWS

Home | Current Version | Previous Version | Graphics & Text | Print | Product List | Glossary On
Versions: 1 2 3 4 5 6 7 8 9 10 11 12 13 14 15 16 17 18 19 20 21 22 23 24 25 26 27 28 29 30 31 32 33 34 35 36 37 38 39 40 41 42 43 44 45 46 47 48 49 50
000
ASUS45 KSLC 192310
RWRUT

UTAH REGIONAL WEATHER ROUNDUP
NATIONAL WEATHER SERVICE SALT LAKE CITY UT
500 PM MDT SUN OCT 19 2014

UTZ001>011-023>025-200000-

NORTHERN UTAH

CITY           SKY/WX    TMP DP  RH WIND       PRES   REMARKS
BRIGHAM CITY   SUNNY     72  31  22 CALM      30.04F
HILL AFB       SUNNY     71  37  29 NW7       30.05F
LOGAN          SUNNY     71  35  26 CALM      30.04F
OGDEN          SUNNY     71  37  28 N3        30.03F
PROVO AIRPORT  MOSUNNY   68  36  30 VRB6      30.03F
SALT LAKE CITY MOSUNNY   72  35  25 N6        30.02F
VERNAL         SUNNY     69  33  26 CALM      30.08F
WENDOVER       SUNNY     66  34  30 SE5       30.04S
HEBER CITY     SUNNY     73  30  20 SW5       30.05S
WEST JORDAN    SUNNY     70  46  43 NW7       30.05F

$$

UTZ012>022-026-027-200000-

SOUTHERN/CENTRAL UTAH

CITY           SKY/WX    TMP DP  RH WIND       PRES   REMARKS
BLANDING       MOSUNNY   70  37  29 SW3       30.16S
BRYCE CANYON   SUNNY     63  31  30 S3        30.17F
CEDAR CITY     SUNNY     72  33  24 NW5       30.03F
DELTA          SUNNY     74  31  20 NW6       30.02F
HANKSVILLE       N/A     77  32  19 NW3       30.03F
MILFORD        SUNNY     75  34  22 N12       30.01F
MOAB/CYNLANDS  SUNNY     75  34  22 NW6       30.00F
PRICE          SUNNY     71  29  21 S5        30.10F
ST GEORGE      CLEAR     84  37  18 NW6       29.88F
KANAB            N/A     73  34  23 NE6       30.03S

$$

REGIONAL REPORTS     COLORADO/ARIZONA

CITY           SKY/WX    TMP DP  RH WIND       PRES   REMARKS
CRAIG, CO      SUNNY     70  31  23 W3        30.12S
GRAND JUNCTION SUNNY     74  39  28 W8        30.02F
RIFLE          MOSUNNY   72  33  24 CALM      30.06F
MONTROSE       MOSUNNY   73  35  25 N7        30.09F
CORTEZ         LGT RAIN  58  48  69 NE12      30.12R
PAGE, AZ       NOT AVBL
GRAND CANYON   MOSUNNY   65  33  30 NE9       30.11F
KINGMAN        LGT RAIN  80  39  23 VRB6G18   29.91S
FLAGSTAFF      MOSUNNY   62  40  44 VRB3      30.13S

$$

REGIONAL REPORTS    NEVADA/IDAHO/WYOMING

CITY           SKY/WX    TMP DP  RH WIND       PRES   REMARKS
LAS VEGAS, NV  MOSUNNY   88  38  17 CALM      29.81F
ELY            PTSUNNY   68  33  27 S9        30.07F
ELKO           SUNNY     76  29  17 SW10      29.99F
POCATELLO, ID  SUNNY     74  33  22 NE8       30.03F
BURLEY         SUNNY     74  35  24 E10       29.97F
EVANSTON, WY   SUNNY     66  27  23 N5        30.16F
ROCK SPRINGS   SUNNY     65  28  24 N6        30.15F
KEMMERER       SUNNY     63  25  23 CALM      30.18F

$$


USA.gov is the U.S. government's official web portal to all federal, state and local government web resources and services.